Location: Catacaguana
(10.4120°N, 66.7591°W)
Time: 05:14:42
(UTC+00:00)

Delta 168 - Pass Details

Date: 27 May 2022
Orbit: 394 x 2031 km, 25.3° (Epoch: 24 June)

Event Time Altitude Azimuth Distance (km) Brightness Sun altitude
Exits shadow 09:19:22 12° 209° (SSW) 1,377 4.4 -11.0°
Maximum altitude 09:21:48 25° 154° (SSE) 835 3.8 -10.4°
Drops below altitude 10° 09:24:25 10° 95° (E) 1,421 6.0 -9.8°
Sets 09:26:45 0° 81° (E) 2,336 7.8 -9.3°
